Вернуться в каталог

CZ-6A DEB

АктивенPO
NORAD 60884·DEBRIS·🇨🇳 China

Запущен Aug 6, 2024 с Taiyuan Satellite Launch Center

Loading…

Ближайшие Пролёты (ближайшие 24 часа)

TLE

СвежийSource: Space-Track

Эпоха: Sep 14, 2026, 11:23 UTC

1 60884U 24140KP  26257.47441911  .00000616  00000-0  36880-3 0  9991
2 60884  89.0585 272.9887 0135825 316.5645  42.4895 14.01523234105867

Отслеживайте CZ-6A DEB в реальном времени с AllMySat

Download on the App Store